| time (UTC) | temp F | wind direction | speed MPH | gust MPH | rain 1hr in | rain 24hr in | rain mn in | humidity % | barometer mb |
| 20260508140708 | 64 | 178 | 2.0 | 3.0 | 0.00 | 0.00 | 0.00 | 55 | 1014.6 |
| 20260508140205 | 63 | 154 | 1.0 | 2.0 | 0.00 | 0.00 | 0.00 | 57 | 1014.6 |
| 20260508135701 | 63 | 82 | 3.0 | 2.0 | 0.00 | 0.00 | 0.00 | 59 | 1014.6 |
| 20260508135156 | 63 | 186 | 0.0 | 0.0 | 0.00 | 0.00 | 0.00 | 58 | 1014.2 |
| 20260508134653 | 62 | 243 | 3.0 | 3.0 | 0.00 | 0.00 | 0.00 | 60 | 1014.2 |
| 20260508134150 | 61 | 338 | 1.0 | 1.0 | 0.00 | 0.00 | 0.00 | 66 | 1014.6 |
| 20260508133647 | 60 | 318 | 0.0 | 0.0 | 0.00 | 0.00 | 0.00 | 69 | 1014.2 |
| 20260508133144 | 59 | 352 | 2.0 | 2.0 | 0.00 | 0.00 | 0.00 | 68 | 1014.2 |
| 20260508132642 | 59 | 4 | 0.0 | 0.0 | 0.00 | 0.00 | 0.00 | 69 | 1014.2 |
| 20260508132139 | 59 | 301 | 1.0 | 1.0 | 0.00 | 0.00 | 0.00 | 71 | 1014.2 |
| 20260508131634 | 58 | 114 | 1.0 | 1.0 | 0.00 | 0.00 | 0.00 | 71 | 1014.2 |
| 20260508131131 | 58 | 290 | 0.0 | 0.0 | 0.00 | 0.00 | 0.00 | 74 | 1014.2 |
| 20260508130628 | 57 | 256 | 0.0 | 0.0 | 0.00 | 0.00 | 0.00 | 74 | 1013.8 |
| 20260508130125 | 57 | 265 | 1.0 | 1.0 | 0.00 | 0.00 | 0.00 | 75 | 1013.8 |
| 20260508125620 | 56 | 328 | 0.0 | 0.0 | 0.00 | 0.00 | 0.00 | 77 | 1013.8 |
| 20260508125118 | 55 | 328 | 0.0 | 0.0 | 0.00 | 0.00 | 0.00 | 78 | 1014.2 |
| 20260508124616 | 55 | 329 | 0.0 | 1.0 | 0.00 | 0.00 | 0.00 | 78 | 1014.2 |
| 20260508124112 | 54 | 321 | 0.0 | 0.0 | 0.00 | 0.00 | 0.00 | 80 | 1014.2 |
| 20260508123611 | 54 | 321 | 0.0 | 0.0 | 0.00 | 0.00 | 0.00 | 80 | 1014.2 |
| 20260508123108 | 53 | 321 | 0.0 | 0.0 | 0.00 | 0.00 | 0.00 | 81 | 1013.8 |
| 20260508122604 | 52 | 326 | 0.0 | 0.0 | 0.00 | 0.00 | 0.00 | 84 | 1013.8 |
| 20260508122101 | 51 | 326 | 0.0 | 0.0 | 0.00 | 0.00 | 0.00 | 86 | 1013.8 |
| 20260508121559 | 51 | 326 | 0.0 | 0.0 | 0.00 | 0.00 | 0.00 | 88 | 1013.8 |
| 20260508121057 | 50 | 326 | 0.0 | 0.0 | 0.00 | 0.00 | 0.00 | 91 | 1013.8 |
| 20260508120554 | 49 | 326 | 0.0 | 0.0 | 0.00 | 0.00 | 0.00 | 94 | 1013.8 |
| 20260508120053 | 49 | 283 | 0.0 | 0.0 | 0.00 | 0.00 | 0.00 | 95 | 1013.8 |
| 20260508115549 | 48 | 283 | 0.0 | 0.0 | 0.00 | 0.00 | 0.00 | 95 | 1013.8 |
| 20260508115046 | 48 | 283 | 0.0 | 0.0 | 0.00 | 0.00 | 0.00 | 96 | 1013.8 |
| 20260508114543 | 47 | 283 | 0.0 | 0.0 | 0.00 | 0.00 | 0.00 | 96 | 1013.5 |
| 20260508114039 | 47 | 283 | 0.0 | 0.0 | 0.00 | 0.00 | 0.00 | 96 | 1013.8 |
| 20260508113537 | 46 | 283 | 0.0 | 0.0 | 0.00 | 0.00 | 0.00 | 96 | 1013.8 |
| 20260508113035 | 46 | 283 | 0.0 | 0.0 | 0.00 | 0.00 | 0.00 | 96 | 1013.8 |
| 20260508112531 | 45 | 283 | 0.0 | 0.0 | 0.00 | 0.00 | 0.00 | 96 | 1013.8 |
| 20260508112027 | 45 | 283 | 0.0 | 0.0 | 0.00 | 0.00 | 0.00 | 96 | 1013.8 |
| 20260508111524 | 45 | 283 | 0.0 | 0.0 | 0.00 | 0.00 | 0.00 | 96 | 1013.5 |
| 20260508111022 | 45 | 283 | 0.0 | 0.0 | 0.00 | 0.00 | 0.00 | 96 | 1013.5 |
| 20260508110520 | 45 | 283 | 0.0 | 0.0 | 0.00 | 0.00 | 0.00 | 96 | 1013.8 |
| 20260508110015 | 45 | 283 | 0.0 | 0.0 | 0.00 | 0.00 | 0.00 | 96 | 1013.5 |
| 20260508105510 | 45 | 283 | 0.0 | 0.0 | 0.00 | 0.00 | 0.00 | 96 | 1013.8 |
| 20260508105008 | 45 | 283 | 0.0 | 0.0 | 0.00 | 0.00 | 0.00 | 96 | 1013.5 |
| 20260508104506 | 45 | 283 | 0.0 | 0.0 | 0.00 | 0.00 | 0.00 | 96 | 1013.8 |
| 20260508104002 | 45 | 283 | 0.0 | 0.0 | 0.00 | 0.00 | 0.00 | 96 | 1013.8 |
| 20260508103459 | 45 | 283 | 0.0 | 0.0 | 0.00 | 0.00 | 0.00 | 96 | 1013.5 |
| 20260508102955 | 44 | 283 | 0.0 | 0.0 | 0.00 | 0.00 | 0.00 | 96 | 1013.5 |
| 20260508102454 | 44 | 283 | 0.0 | 0.0 | 0.00 | 0.00 | 0.00 | 96 | 1013.8 |
| 20260508101951 | 44 | 283 | 1.0 | 1.0 | 0.00 | 0.00 | 0.00 | 96 | 1013.8 |
| 20260508101449 | 44 | 283 | 0.0 | 0.0 | 0.00 | 0.00 | 0.00 | 96 | 1013.5 |
| 20260508100945 | 44 | 283 | 0.0 | 0.0 | 0.00 | 0.00 | 0.00 | 96 | 1013.5 |
| 20260508100444 | 44 | 283 | 0.0 | 0.0 | 0.00 | 0.00 | 0.00 | 96 | 1013.8 |
| 20260508095940 | 44 | 283 | 0.0 | 0.0 | 0.00 | 0.00 | 0.00 | 96 | 1013.8 |
| 20260508095438 | 44 | 283 | 0.0 | 0.0 | 0.00 | 0.00 | 0.00 | 96 | 1014.2 |
| 20260508094934 | 44 | 283 | 0.0 | 0.0 | 0.00 | 0.00 | 0.00 | 96 | 1013.8 |
| 20260508094430 | 44 | 283 | 0.0 | 0.0 | 0.00 | 0.00 | 0.00 | 96 | 1013.8 |
| 20260508093927 | 44 | 283 | 0.0 | 0.0 | 0.00 | 0.00 | 0.00 | 96 | 1014.2 |
| 20260508093425 | 44 | 283 | 0.0 | 0.0 | 0.00 | 0.00 | 0.00 | 96 | 1013.8 |
| 20260508092922 | 44 | 283 | 0.0 | 0.0 | 0.00 | 0.00 | 0.00 | 96 | 1013.8 |
| 20260508092420 | 44 | 283 | 0.0 | 0.0 | 0.00 | 0.00 | 0.00 | 96 | 1013.8 |
| 20260508091918 | 44 | 283 | 0.0 | 0.0 | 0.00 | 0.00 | 0.00 | 96 | 1013.8 |
| 20260508091415 | 44 | 283 | 0.0 | 0.0 | 0.00 | 0.00 | 0.00 | 95 | 1013.8 |
| 20260508090912 | 44 | 283 | 0.0 | 0.0 | 0.00 | 0.00 | 0.00 | 95 | 1014.2 |
| 20260508090411 | 44 | 283 | 0.0 | 0.0 | 0.00 | 0.00 | 0.00 | 95 | 1014.2 |
| 20260508085911 | 44 | 283 | 0.0 | 0.0 | 0.00 | 0.00 | 0.00 | 95 | 1013.8 |
| 20260508085409 | 44 | 283 | 0.0 | 0.0 | 0.00 | 0.00 | 0.00 | 95 | 1014.2 |
| 20260508084905 | 44 | 283 | 0.0 | 0.0 | 0.00 | 0.00 | 0.00 | 95 | 1014.2 |
| 20260508084402 | 44 | 283 | 0.0 | 0.0 | 0.00 | 0.00 | 0.00 | 95 | 1014.2 |
| 20260508083900 | 44 | 283 | 0.0 | 0.0 | 0.00 | 0.00 | 0.00 | 95 | 1014.2 |
| 20260508083357 | 44 | 283 | 0.0 | 0.0 | 0.00 | 0.00 | 0.00 | 95 | 1014.2 |
| 20260508082856 | 44 | 283 | 0.0 | 0.0 | 0.00 | 0.00 | 0.00 | 95 | 1014.6 |
| 20260508082354 | 44 | 283 | 0.0 | 0.0 | 0.00 | 0.00 | 0.00 | 95 | 1014.2 |
| 20260508081852 | 44 | 283 | 0.0 | 0.0 | 0.00 | 0.00 | 0.00 | 95 | 1014.2 |
| 20260508081348 | 44 | 283 | 0.0 | 0.0 | 0.00 | 0.00 | 0.00 | 95 | 1014.2 |
| 20260508080845 | 44 | 283 | 0.0 | 0.0 | 0.00 | 0.00 | 0.00 | 95 | 1014.2 |
| 20260508080343 | 44 | 283 | 0.0 | 0.0 | 0.00 | 0.00 | 0.00 | 95 | 1014.2 |
| 20260508075839 | 44 | 283 | 0.0 | 0.0 | 0.00 | 0.00 | 0.00 | 95 | 1014.2 |
| 20260508075336 | 44 | 283 | 0.0 | 0.0 | 0.00 | 0.00 | 0.00 | 95 | 1014.6 |
| 20260508074834 | 44 | 283 | 0.0 | 0.0 | 0.00 | 0.00 | 0.00 | 95 | 1014.2 |
| 20260508074331 | 44 | 283 | 0.0 | 0.0 | 0.00 | 0.00 | 0.00 | 94 | 1014.6 |
| 20260508073828 | 44 | 283 | 0.0 | 0.0 | 0.00 | 0.00 | 0.00 | 94 | 1014.2 |
| 20260508073326 | 44 | 283 | 0.0 | 0.0 | 0.00 | 0.00 | 0.00 | 94 | 1014.6 |
| 20260508072822 | 44 | 283 | 0.0 | 0.0 | 0.00 | 0.00 | 0.00 | 94 | 1014.6 |
| 20260508072319 | 44 | 283 | 0.0 | 0.0 | 0.00 | 0.00 | 0.00 | 94 | 1014.6 |
| 20260508071816 | 44 | 283 | 0.0 | 0.0 | 0.00 | 0.00 | 0.00 | 94 | 1014.6 |
| 20260508071314 | 44 | 283 | 0.0 | 0.0 | 0.00 | 0.00 | 0.00 | 94 | 1014.6 |
| 20260508070811 | 44 | 283 | 0.0 | 0.0 | 0.00 | 0.00 | 0.00 | 93 | 1014.6 |
| 20260508070310 | 44 | 283 | 0.0 | 0.0 | 0.00 | 0.00 | 0.00 | 93 | 1014.6 |
| 20260508065807 | 45 | 283 | 0.0 | 0.0 | 0.00 | 0.00 | 0.00 | 93 | 1014.9 |
| 20260508065307 | 45 | 283 | 0.0 | 0.0 | 0.00 | 0.00 | 0.00 | 93 | 1014.9 |
| 20260508064803 | 45 | 283 | 0.0 | 0.0 | 0.00 | 0.00 | 0.00 | 94 | 1014.9 |
| 20260508064300 | 45 | 282 | 0.0 | 0.0 | 0.00 | 0.00 | 0.00 | 94 | 1014.9 |
| 20260508063757 | 45 | 283 | 0.0 | 0.0 | 0.00 | 0.00 | 0.00 | 94 | 1014.9 |
| 20260508063256 | 45 | 283 | 0.0 | 0.0 | 0.00 | 0.00 | 0.00 | 94 | 1015.3 |
| 20260508062752 | 45 | 283 | 0.0 | 0.0 | 0.00 | 0.00 | 0.00 | 93 | 1015.3 |
| 20260508062250 | 45 | 283 | 0.0 | 0.0 | 0.00 | 0.00 | 0.00 | 93 | 1014.9 |
| 20260508061746 | 45 | 283 | 0.0 | 0.0 | 0.00 | 0.00 | 0.00 | 93 | 1015.3 |
| 20260508061243 | 45 | 283 | 0.0 | 0.0 | 0.00 | 0.00 | 0.00 | 93 | 1015.6 |
| 20260508060740 | 45 | 283 | 0.0 | 0.0 | 0.00 | 0.00 | 0.00 | 93 | 1015.3 |
| 20260508060238 | 45 | 283 | 0.0 | 0.0 | 0.00 | 0.00 | 0.00 | 93 | 1015.6 |
| 20260508055733 | 45 | 283 | 0.0 | 0.0 | 0.00 | 0.00 | 0.00 | 93 | 1015.6 |
| 20260508055231 | 45 | 283 | 0.0 | 0.0 | 0.00 | 0.00 | 0.00 | 93 | 1015.3 |
| 20260508054727 | 46 | 283 | 0.0 | 0.0 | 0.00 | 0.00 | 0.00 | 92 | 1015.3 |
| 20260508054225 | 46 | 283 | 0.0 | 0.0 | 0.00 | 0.00 | 0.00 | 93 | 1015.6 |
| 20260508053721 | 46 | 283 | 0.0 | 0.0 | 0.00 | 0.00 | 0.00 | 93 | 1015.6 |
| 20260508053219 | 46 | 283 | 0.0 | 0.0 | 0.00 | 0.00 | 0.00 | 92 | 1015.6 |
| 20260508052716 | 46 | 283 | 0.0 | 0.0 | 0.00 | 0.00 | 0.00 | 92 | 1015.6 |
| 20260508052213 | 46 | 283 | 0.0 | 0.0 | 0.00 | 0.00 | 0.00 | 92 | 1015.3 |
| 20260508051709 | 46 | 283 | 0.0 | 0.0 | 0.00 | 0.00 | 0.00 | 91 | 1015.6 |
| 20260508051205 | 46 | 283 | 0.0 | 0.0 | 0.00 | 0.00 | 0.00 | 91 | 1015.6 |
| 20260508050701 | 46 | 283 | 0.0 | 0.0 | 0.00 | 0.00 | 0.00 | 91 | 1015.6 |
| 20260508050159 | 47 | 283 | 0.0 | 0.0 | 0.00 | 0.00 | 0.00 | 91 | 1015.3 |
| 20260508045654 | 47 | 283 | 0.0 | 0.0 | 0.00 | 0.00 | 0.00 | 91 | 1015.3 |
| 20260508045153 | 47 | 283 | 0.0 | 0.0 | 0.00 | 0.00 | 0.00 | 91 | 1015.6 |
| 20260508044650 | 47 | 283 | 0.0 | 0.0 | 0.00 | 0.00 | 0.00 | 91 | 1015.9 |
| 20260508044146 | 47 | 283 | 0.0 | 0.0 | 0.00 | 0.00 | 0.00 | 91 | 1015.6 |
| 20260508043642 | 47 | 283 | 0.0 | 0.0 | 0.00 | 0.00 | 0.00 | 90 | 1015.6 |
| 20260508043140 | 47 | 283 | 0.0 | 0.0 | 0.00 | 0.00 | 0.00 | 90 | 1015.9 |
| 20260508042636 | 47 | 283 | 0.0 | 0.0 | 0.00 | 0.00 | 0.00 | 90 | 1015.6 |
| 20260508042134 | 48 | 282 | 0.0 | 0.0 | 0.00 | 0.00 | 0.00 | 89 | 1015.9 |
| 20260508041630 | 48 | 283 | 0.0 | 0.0 | 0.00 | 0.00 | 0.00 | 89 | 1016.3 |
| 20260508041127 | 48 | 283 | 0.0 | 0.0 | 0.00 | 0.00 | 0.00 | 89 | 1016.3 |
| 20260508040623 | 48 | 282 | 1.0 | 1.0 | 0.00 | 0.00 | 0.00 | 88 | 1016.3 |
| 20260508040121 | 48 | 281 | 1.0 | 1.0 | 0.00 | 0.00 | 0.00 | 88 | 1016.3 |
| 20260508035618 | 48 | 284 | 0.0 | 0.0 | 0.00 | 0.00 | 0.00 | 88 | 1015.9 |
| 20260508035115 | 48 | 291 | 0.0 | 0.0 | 0.00 | 0.00 | 0.00 | 88 | 1016.3 |
| 20260508034612 | 48 | 292 | 1.0 | 1.0 | 0.00 | 0.00 | 0.00 | 88 | 1016.6 |
| 20260508034109 | 48 | 294 | 0.0 | 0.0 | 0.00 | 0.00 | 0.00 | 88 | 1016.3 |
| 20260508033606 | 48 | 294 | 2.0 | 1.0 | 0.00 | 0.00 | 0.00 | 88 | 1016.3 |
| 20260508033105 | 48 | 309 | 0.0 | 0.0 | 0.00 | 0.00 | 0.00 | 88 | 1016.3 |
| 20260508032601 | 48 | 311 | 0.0 | 0.0 | 0.00 | 0.00 | 0.00 | 88 | 1016.3 |
| 20260508032059 | 49 | 311 | 0.0 | 0.0 | 0.00 | 0.00 | 0.00 | 88 | 1016.3 |
| 20260508031555 | 49 | 311 | 0.0 | 0.0 | 0.00 | 0.00 | 0.00 | 87 | 1016.3 |
| 20260508031051 | 50 | 311 | 0.0 | 0.0 | 0.00 | 0.00 | 0.00 | 86 | 1016.3 |
| 20260508030548 | 50 | 311 | 0.0 | 0.0 | 0.00 | 0.00 | 0.00 | 86 | 1015.9 |
| 20260508030046 | 50 | 310 | 0.0 | 0.0 | 0.00 | 0.00 | 0.00 | 85 | 1015.9 |
| 20260508025542 | 50 | 322 | 0.0 | 0.0 | 0.00 | 0.00 | 0.00 | 84 | 1015.9 |
| 20260508025039 | 50 | 322 | 0.0 | 0.0 | 0.00 | 0.00 | 0.00 | 85 | 1015.9 |
| 20260508024535 | 50 | 323 | 0.0 | 0.0 | 0.00 | 0.00 | 0.00 | 85 | 1015.9 |
| 20260508024033 | 50 | 323 | 0.0 | 0.0 | 0.00 | 0.00 | 0.00 | 85 | 1016.3 |
| 20260508023529 | 51 | 323 | 0.0 | 0.0 | 0.00 | 0.00 | 0.00 | 84 | 1015.6 |
| 20260508023026 | 51 | 323 | 0.0 | 0.0 | 0.00 | 0.00 | 0.00 | 84 | 1015.6 |
| 20260508022522 | 51 | 323 | 0.0 | 0.0 | 0.00 | 0.00 | 0.00 | 83 | 1015.6 |
| 20260508022019 | 51 | 323 | 0.0 | 0.0 | 0.00 | 0.00 | 0.00 | 82 | 1015.3 |
| 20260508021515 | 51 | 323 | 0.0 | 0.0 | 0.00 | 0.00 | 0.00 | 81 | 1015.3 |
| 20260508021011 | 52 | 323 | 0.0 | 0.0 | 0.00 | 0.00 | 0.00 | 80 | 1015.3 |
| 20260508020509 | 52 | 323 | 0.0 | 0.0 | 0.00 | 0.00 | 0.00 | 79 | 1015.3 |
| 20260508020006 | 52 | 323 | 0.0 | 0.0 | 0.00 | 0.00 | 0.00 | 78 | 1015.3 |
| 20260508015503 | 53 | 323 | 0.0 | 0.0 | 0.00 | 0.00 | 0.00 | 77 | 1015.3 |
| 20260508015000 | 53 | 323 | 0.0 | 0.0 | 0.00 | 0.00 | 0.00 | 76 | 1015.3 |
| 20260508014456 | 54 | 323 | 0.0 | 0.0 | 0.00 | 0.00 | 0.00 | 76 | 1015.3 |
| 20260508013952 | 54 | 323 | 0.0 | 0.0 | 0.00 | 0.00 | 0.00 | 73 | 1015.3 |
| 20260508013448 | 55 | 323 | 0.0 | 0.0 | 0.00 | 0.00 | 0.00 | 71 | 1015.3 |
| 20260508012946 | 55 | 323 | 0.0 | 0.0 | 0.00 | 0.00 | 0.00 | 69 | 1015.3 |
| 20260508012443 | 56 | 323 | 0.0 | 0.0 | 0.00 | 0.00 | 0.00 | 69 | 1015.3 |
| 20260508011940 | 56 | 323 | 0.0 | 0.0 | 0.00 | 0.00 | 0.00 | 68 | 1014.9 |
| 20260508011438 | 57 | 323 | 0.0 | 0.0 | 0.00 | 0.00 | 0.00 | 66 | 1015.3 |
| 20260508010936 | 58 | 323 | 0.0 | 0.0 | 0.00 | 0.00 | 0.00 | 63 | 1014.9 |
| 20260508010432 | 58 | 323 | 0.0 | 0.0 | 0.00 | 0.00 | 0.00 | 60 | 1014.9 |
| 20260508005930 | 59 | 323 | 0.0 | 0.0 | 0.00 | 0.00 | 0.00 | 58 | 1014.9 |
| 20260508005427 | 60 | 323 | 0.0 | 0.0 | 0.00 | 0.00 | 0.00 | 57 | 1014.9 |
| 20260508004923 | 60 | 323 | 0.0 | 0.0 | 0.00 | 0.00 | 0.00 | 54 | 1014.9 |
| 20260508004419 | 61 | 323 | 0.0 | 0.0 | 0.00 | 0.00 | 0.00 | 54 | 1014.6 |
| 20260508003916 | 61 | 323 | 0.0 | 0.0 | 0.00 | 0.00 | 0.00 | 52 | 1014.6 |
| 20260508003413 | 62 | 323 | 0.0 | 0.0 | 0.00 | 0.00 | 0.00 | 50 | 1014.6 |
| 20260508002910 | 62 | 323 | 0.0 | 0.0 | 0.00 | 0.00 | 0.00 | 48 | 1014.6 |
| 20260508002406 | 62 | 323 | 0.0 | 0.0 | 0.00 | 0.00 | 0.00 | 48 | 1014.6 |
| 20260508001902 | 63 | 323 | 0.0 | 0.0 | 0.00 | 0.00 | 0.00 | 46 | 1014.2 |
| 20260508001358 | 63 | 323 | 0.0 | 0.0 | 0.00 | 0.00 | 0.00 | 46 | 1014.6 |
| 20260508000855 | 63 | 306 | 0.0 | 0.0 | 0.00 | 0.00 | 0.00 | 46 | 1014.6 |
| 20260508000351 | 64 | 294 | 0.0 | 0.0 | 0.00 | 0.00 | 0.00 | 45 | 1014.6 |
| 20260507235848 | 64 | 193 | 2.0 | 2.0 | 0.00 | 0.00 | 0.00 | 43 | 1014.6 |
| 20260507235346 | 64 | 301 | 0.0 | 0.0 | 0.00 | 0.00 | 0.00 | 46 | 1014.9 |
| 20260507234843 | 64 | 291 | 0.0 | 0.0 | 0.00 | 0.00 | 0.00 | 44 | 1014.6 |
| 20260507234339 | 64 | 302 | 0.0 | 0.0 | 0.00 | 0.00 | 0.00 | 43 | 1014.6 |
| 20260507233835 | 65 | 291 | 2.0 | 2.0 | 0.00 | 0.00 | 0.00 | 42 | 1014.6 |
| 20260507233333 | 65 | 309 | 1.0 | 1.0 | 0.00 | 0.00 | 0.00 | 43 | 1014.6 |
| 20260507232831 | 65 | 339 | 1.0 | 1.0 | 0.00 | 0.00 | 0.00 | 41 | 1014.9 |
| 20260507232327 | 65 | 342 | 0.0 | 0.0 | 0.00 | 0.00 | 0.00 | 44 | 1014.9 |
| 20260507231825 | 65 | 278 | 1.0 | 2.0 | 0.00 | 0.00 | 0.00 | 43 | 1014.9 |
| 20260507231321 | 65 | 296 | 1.0 | 1.0 | 0.00 | 0.00 | 0.00 | 43 | 1014.9 |
| 20260507230818 | 65 | 297 | 0.0 | 0.0 | 0.00 | 0.00 | 0.00 | 42 | 1014.9 |
| 20260507230316 | 66 | 308 | 1.0 | 1.0 | 0.00 | 0.00 | 0.00 | 40 | 1014.9 |
| 20260507225815 | 66 | 303 | 0.0 | 0.0 | 0.00 | 0.00 | 0.00 | 40 | 1014.9 |
| 20260507225311 | 66 | 234 | 4.0 | 5.0 | 0.00 | 0.00 | 0.00 | 39 | 1015.3 |
| 20260507224807 | 66 | 288 | 1.0 | 1.0 | 0.00 | 0.00 | 0.00 | 39 | 1015.3 |
| 20260507224304 | 67 | 282 | 1.0 | 2.0 | 0.00 | 0.00 | 0.00 | 38 | 1015.3 |
| 20260507223800 | 66 | 287 | 2.0 | 2.0 | 0.00 | 0.00 | 0.00 | 39 | 1015.3 |
| 20260507223257 | 67 | 334 | 0.0 | 0.0 | 0.00 | 0.00 | 0.00 | 40 | 1015.3 |
| 20260507222754 | 67 | 289 | 1.0 | 2.0 | 0.00 | 0.00 | 0.00 | 38 | 1015.3 |
| 20260507222250 | 67 | 343 | 2.0 | 3.0 | 0.00 | 0.00 | 0.00 | 38 | 1015.3 |
| 20260507221748 | 67 | 313 | 0.0 | 1.0 | 0.00 | 0.00 | 0.00 | 39 | 1015.3 |
| 20260507221244 | 67 | 162 | 4.0 | 5.0 | 0.00 | 0.00 | 0.00 | 37 | 1015.6 |
| 20260507220740 | 67 | 189 | 3.0 | 3.0 | 0.00 | 0.00 | 0.00 | 36 | 1015.6 |
| 20260507220238 | 68 | 282 | 1.0 | 1.0 | 0.00 | 0.00 | 0.00 | 36 | 1015.3 |
| 20260507215734 | 68 | 19 | 2.0 | 3.0 | 0.00 | 0.00 | 0.00 | 36 | 1015.6 |
| 20260507215232 | 68 | 27 | 1.0 | 1.0 | 0.00 | 0.00 | 0.00 | 36 | 1015.6 |
| 20260507214729 | 68 | 236 | 2.0 | 3.0 | 0.00 | 0.00 | 0.00 | 34 | 1015.6 |
| 20260507214226 | 68 | 238 | 2.0 | 2.0 | 0.00 | 0.00 | 0.00 | 37 | 1015.6 |
| 20260507213721 | 68 | 111 | 1.0 | 3.0 | 0.00 | 0.00 | 0.00 | 34 | 1015.6 |
| 20260507213219 | 69 | 173 | 3.0 | 2.0 | 0.00 | 0.00 | 0.00 | 35 | 1015.3 |
| 20260507212714 | 68 | 62 | 4.0 | 6.0 | 0.00 | 0.00 | 0.00 | 34 | 1015.6 |
| 20260507212211 | 69 | 180 | 4.0 | 5.0 | 0.00 | 0.00 | 0.00 | 34 | 1015.6 |
| 20260507211708 | 69 | 25 | 1.0 | 1.0 | 0.00 | 0.00 | 0.00 | 34 | 1015.6 |
| 20260507211204 | 68 | 239 | 1.0 | 1.0 | 0.00 | 0.00 | 0.00 | 35 | 1015.9 |
| 20260507210701 | 69 | 286 | 4.0 | 7.0 | 0.00 | 0.00 | 0.00 | 33 | 1015.9 |
| 20260507210158 | 69 | 284 | 0.0 | 0.0 | 0.00 | 0.00 | 0.00 | 36 | 1015.6 |
| 20260507205654 | 69 | 331 | 1.0 | 1.0 | 0.00 | 0.00 | 0.00 | 34 | 1015.9 |
| 20260507205151 | 69 | 133 | 4.0 | 3.0 | 0.00 | 0.00 | 0.00 | 33 | 1016.3 |
| 20260507204647 | 68 | 72 | 3.0 | 3.0 | 0.00 | 0.00 | 0.00 | 33 | 1015.9 |
| 20260507204145 | 69 | 251 | 1.0 | 2.0 | 0.00 | 0.00 | 0.00 | 33 | 1016.3 |
| 20260507203643 | 69 | 142 | 2.0 | 2.0 | 0.00 | 0.00 | 0.00 | 33 | 1016.3 |
| 20260507203140 | 68 | 29 | 2.0 | 2.0 | 0.00 | 0.00 | 0.00 | 33 | 1016.3 |
| 20260507202636 | 70 | 170 | 5.0 | 5.0 | 0.00 | 0.00 | 0.00 | 31 | 1016.3 |
| 20260507202132 | 69 | 163 | 3.0 | 3.0 | 0.00 | 0.00 | 0.00 | 32 | 1016.3 |
| 20260507201627 | 68 | 162 | 3.0 | 3.0 | 0.00 | 0.00 | 0.00 | 34 | 1016.6 |
| 20260507201125 | 69 | 6 | 0.0 | 0.0 | 0.00 | 0.00 | 0.00 | 31 | 1016.6 |
| 20260507200620 | 68 | 276 | 1.0 | 1.0 | 0.00 | 0.00 | 0.00 | 33 | 1016.6 |
| 20260507200116 | 68 | 206 | 3.0 | 6.0 | 0.00 | 0.00 | 0.00 | 32 | 1017.0 |
| 20260507195614 | 69 | 38 | 5.0 | 6.0 | 0.00 | 0.00 | 0.00 | 30 | 1017.0 |
| 20260507195111 | 68 | 161 | 2.0 | 2.0 | 0.00 | 0.00 | 0.00 | 32 | 1017.0 |
| 20260507194607 | 69 | 175 | 3.0 | 3.0 | 0.00 | 0.00 | 0.00 | 31 | 1017.0 |
| 20260507194103 | 69 | 169 | 4.0 | 5.0 | 0.00 | 0.00 | 0.00 | 31 | 1017.0 |
| 20260507193600 | 69 | 174 | 3.0 | 5.0 | 0.00 | 0.00 | 0.00 | 31 | 1016.6 |
| 20260507193057 | 67 | 242 | 4.0 | 5.0 | 0.00 | 0.00 | 0.00 | 32 | 1017.0 |
| 20260507192553 | 67 | 344 | 3.0 | 3.0 | 0.00 | 0.00 | 0.00 | 32 | 1017.3 |
| 20260507192050 | 68 | 22 | 3.0 | 3.0 | 0.00 | 0.00 | 0.00 | 29 | 1017.3 |
| 20260507191546 | 68 | 268 | 1.0 | 2.0 | 0.00 | 0.00 | 0.00 | 31 | 1017.6 |
| 20260507191043 | 68 | 140 | 8.0 | 9.0 | 0.00 | 0.00 | 0.00 | 29 | 1017.3 |
| 20260507190540 | 68 | 158 | 5.0 | 6.0 | 0.00 | 0.00 | 0.00 | 31 | 1017.3 |
| 20260507190039 | 69 | 191 | 2.0 | 2.0 | 0.00 | 0.00 | 0.00 | 29 | 1017.3 |
| 20260507185537 | 68 | 293 | 5.0 | 8.0 | 0.00 | 0.00 | 0.00 | 31 | 1017.3 |
| 20260507185033 | 67 | 109 | 3.0 | 2.0 | 0.00 | 0.00 | 0.00 | 30 | 1017.3 |
| 20260507184532 | 67 | 55 | 1.0 | 1.0 | 0.00 | 0.00 | 0.00 | 29 | 1017.3 |
| 20260507184029 | 67 | 152 | 0.0 | 1.0 | 0.00 | 0.00 | 0.00 | 29 | 1017.3 |
| 20260507183525 | 67 | 264 | 1.0 | 1.0 | 0.00 | 0.00 | 0.00 | 29 | 1017.3 |
| 20260507183022 | 67 | 56 | 0.0 | 0.0 | 0.00 | 0.00 | 0.00 | 30 | 1017.6 |
| 20260507182518 | 66 | 89 | 3.0 | 5.0 | 0.00 | 0.00 | 0.00 | 30 | 1017.6 |
| 20260507182014 | 67 | 44 | 4.0 | 5.0 | 0.00 | 0.00 | 0.00 | 29 | 1017.6 |
| 20260507181511 | 68 | 319 | 0.0 | 0.0 | 0.00 | 0.00 | 0.00 | 33 | 1017.6 |
| 20260507181008 | 67 | 178 | 1.0 | 2.0 | 0.00 | 0.00 | 0.00 | 30 | 1018.1 |
| 20260507180504 | 67 | 322 | 2.0 | 3.0 | 0.00 | 0.00 | 0.00 | 30 | 1018.1 |
| 20260507180000 | 67 | 333 | 0.0 | 0.0 | 0.00 | 0.00 | 0.00 | 30 | 1018.1 |
| 20260507175457 | 67 | 2 | 3.0 | 5.0 | 0.00 | 0.00 | 0.00 | 29 | 1018.8 |
| 20260507174955 | 66 | 38 | 3.0 | 5.0 | 0.00 | 0.00 | 0.00 | 28 | 1018.4 |
| 20260507174452 | 66 | 80 | 6.0 | 8.0 | 0.00 | 0.00 | 0.00 | 27 | 1018.1 |
| 20260507173949 | 66 | 116 | 3.0 | 3.0 | 0.00 | 0.00 | 0.00 | 29 | 1018.4 |
| 20260507173446 | 66 | 151 | 1.0 | 1.0 | 0.00 | 0.00 | 0.00 | 29 | 1018.4 |
| 20260507172943 | 66 | 131 | 3.0 | 5.0 | 0.00 | 0.00 | 0.00 | 30 | 1018.8 |
| 20260507172439 | 65 | 183 | 3.0 | 3.0 | 0.00 | 0.00 | 0.00 | 29 | 1018.8 |
| 20260507171936 | 65 | 160 | 3.0 | 5.0 | 0.00 | 0.00 | 0.00 | 29 | 1019.1 |
| 20260507171432 | 66 | 203 | 5.0 | 6.0 | 0.00 | 0.00 | 0.00 | 29 | 1018.8 |
| 20260507170929 | 66 | 135 | 3.0 | 3.0 | 0.00 | 0.00 | 0.00 | 30 | 1018.8 |
| 20260507170426 | 65 | 131 | 3.0 | 3.0 | 0.00 | 0.00 | 0.00 | 31 | 1019.1 |
| 20260507165922 | 65 | 59 | 2.0 | 2.0 | 0.00 | 0.00 | 0.00 | 30 | 1019.1 |
| 20260507165418 | 66 | 168 | 3.0 | 5.0 | 0.00 | 0.00 | 0.00 | 30 | 1019.1 |
| 20260507164914 | 65 | 220 | 2.0 | 2.0 | 0.00 | 0.00 | 0.00 | 31 | 1019.1 |
| 20260507164411 | 64 | 346 | 2.0 | 2.0 | 0.00 | 0.00 | 0.00 | 30 | 1019.1 |
| 20260507163908 | 64 | 120 | 2.0 | 2.0 | 0.00 | 0.00 | 0.00 | 32 | 1019.1 |
| 20260507163406 | 65 | 179 | 5.0 | 6.0 | 0.00 | 0.00 | 0.00 | 31 | 1019.4 |
| 20260507162902 | 65 | 170 | 3.0 | 5.0 | 0.00 | 0.00 | 0.00 | 32 | 1019.4 |
| 20260507162357 | 65 | 112 | 1.0 | 1.0 | 0.00 | 0.00 | 0.00 | 31 | 1019.4 |
| 20260507161855 | 64 | 31 | 2.0 | 3.0 | 0.00 | 0.00 | 0.00 | 31 | 1019.4 |
| 20260507161351 | 62 | 152 | 2.0 | 2.0 | 0.00 | 0.00 | 0.00 | 32 | 1019.4 |
| 20260507160848 | 63 | 164 | 7.0 | 8.0 | 0.00 | 0.00 | 0.00 | 33 | 1019.1 |
| 20260507160343 | 63 | 57 | 2.0 | 3.0 | 0.00 | 0.00 | 0.00 | 33 | 1019.4 |
| 20260507155840 | 63 | 166 | 0.0 | 0.0 | 0.00 | 0.00 | 0.00 | 34 | 1019.1 |
| 20260507155336 | 62 | 224 | 5.0 | 6.0 | 0.00 | 0.00 | 0.00 | 37 | 1019.4 |
| 20260507154833 | 63 | 1 | 4.0 | 6.0 | 0.00 | 0.00 | 0.00 | 34 | 1019.4 |
| 20260507154330 | 64 | 296 | 1.0 | 1.0 | 0.00 | 0.00 | 0.00 | 36 | 1019.8 |
| 20260507153827 | 63 | 324 | 1.0 | 1.0 | 0.00 | 0.00 | 0.00 | 36 | 1019.4 |
| 20260507153323 | 63 | 202 | 3.0 | 3.0 | 0.00 | 0.00 | 0.00 | 35 | 1019.8 |
| 20260507152820 | 64 | 218 | 3.0 | 3.0 | 0.00 | 0.00 | 0.00 | 37 | 1019.4 |
| 20260507152316 | 63 | 243 | 1.0 | 1.0 | 0.00 | 0.00 | 0.00 | 37 | 1019.8 |
| 20260507151812 | 62 | 129 | 2.0 | 2.0 | 0.00 | 0.00 | 0.00 | 37 | 1019.4 |
| 20260507151309 | 63 | 161 | 4.0 | 6.0 | 0.00 | 0.00 | 0.00 | 36 | 1019.8 |
| 20260507150806 | 62 | 346 | 1.0 | 1.0 | 0.00 | 0.00 | 0.00 | 36 | 1019.8 |
| 20260507150302 | 62 | 182 | 1.0 | 1.0 | 0.00 | 0.00 | 0.00 | 39 | 1019.8 |
| 20260507145759 | 61 | 234 | 3.0 | 3.0 | 0.00 | 0.00 | 0.00 | 41 | 1019.8 |
| 20260507145255 | 60 | 214 | 3.0 | 3.0 | 0.00 | 0.00 | 0.00 | 41 | 1019.8 |
| 20260507144752 | 60 | 158 | 5.0 | 6.0 | 0.00 | 0.00 | 0.00 | 41 | 1019.8 |
| 20260507144250 | 61 | 159 | 3.0 | 3.0 | 0.00 | 0.00 | 0.00 | 41 | 1019.8 |
| 20260507143746 | 61 | 49 | 0.0 | 1.0 | 0.00 | 0.00 | 0.00 | 41 | 1020.1 |
| 20260507143244 | 59 | 183 | 0.0 | 0.0 | 0.00 | 0.00 | 0.00 | 46 | 1019.8 |
| 20260507142739 | 59 | 168 | 2.0 | 2.0 | 0.00 | 0.00 | 0.00 | 47 | 1019.8 |
| 20260507142236 | 58 | 171 | 3.0 | 3.0 | 0.00 | 0.00 | 0.00 | 50 | 1020.1 |
| 20260507141732 | 58 | 194 | 2.0 | 2.0 | 0.00 | 0.00 | 0.00 | 51 | 1020.1 |
| 20260507141230 | 57 | 143 | 3.0 | 5.0 | 0.00 | 0.00 | 0.00 | 53 | 1020.1 |